Wetterdaten: Dienstag, 29.11.2016
Datum Zeit Temp. A. Temp. A. min Temp. A. max Feuchte A. Bod.Feucht 4 Luftdruck Regen Wind Richtung Richtung Sonnenschein ET Solar Taupunkt Windchill Windben Empfang
29.11.2016 00:00 -2,0 C -2,0 C -1,9 C 74 % 0 cb 1032,9 hPa 0,0 l/m 6,4 km/h (2 Bft) NO 45 0 min 0,025 mm 0 W/m -6,0 C -4,5 C 17,7 km/h (3 Bft) 100,00 %
29.11.2016 00:10 -2,1 C -2,1 C -2,0 C 74 % 0 cb 1032,9 hPa 0,0 l/m 4,8 km/h (1 Bft) N-NO 22 0 min 0,000 mm 0 W/m -6,1 C -3,9 C 14,5 km/h (3 Bft) 100,00 %
29.11.2016 00:20 -2,2 C -2,2 C -2,1 C 74 % 0 cb 1033,0 hPa 0,0 l/m 4,8 km/h (1 Bft) N-NO 22 0 min 0,000 mm 0 W/m -6,2 C -4,0 C 17,7 km/h (3 Bft) 100,00 %
29.11.2016 00:30 -2,2 C -2,2 C -2,2 C 75 % 0 cb 1032,9 hPa 0,0 l/m 6,4 km/h (2 Bft) N-NO 22 0 min 0,000 mm 0 W/m -6,0 C -4,7 C 16,1 km/h (3 Bft) 100,00 %
29.11.2016 00:40 -2,3 C -2,3 C -2,2 C 75 % 0 cb 1033,0 hPa 0,0 l/m 4,8 km/h (1 Bft) N 360 0 min 0,000 mm 0 W/m -6,1 C -4,1 C 12,9 km/h (3 Bft) 100,00 %
29.11.2016 00:50 -2,3 C -2,3 C -2,2 C 75 % 0 cb 1033,1 hPa 0,0 l/m 4,8 km/h (1 Bft) O-NO 67 0 min 0,000 mm 0 W/m -6,1 C -4,1 C 12,9 km/h (3 Bft) 100,00 %
29.11.2016 01:00 -2,4 C -2,4 C -2,3 C 76 % 0 cb 1032,9 hPa 0,0 l/m 4,8 km/h (1 Bft) NO 45 0 min 0,025 mm 0 W/m -6,0 C -4,2 C 16,1 km/h (3 Bft) 100,00 %
29.11.2016 01:10 -2,4 C -2,5 C -2,4 C 76 % 0 cb 1033,0 hPa 0,0 l/m 4,8 km/h (1 Bft) NO 45 0 min 0,000 mm 0 W/m -6,0 C -4,2 C 22,5 km/h (4 Bft) 100,00 %
29.11.2016 01:20 -2,6 C -2,6 C -2,4 C 76 % 0 cb 1033,0 hPa 0,0 l/m 3,2 km/h (1 Bft) N-NO 22 0 min 0,000 mm 0 W/m -6,2 C -2,6 C 22,5 km/h (4 Bft) 100,00 %
29.11.2016 01:30 -2,7 C -2,7 C -2,6 C 77 % 0 cb 1032,9 hPa 0,0 l/m 3,2 km/h (1 Bft) O-NO 67 0 min 0,000 mm 0 W/m -6,2 C -2,7 C 9,7 km/h (2 Bft) 100,00 %
29.11.2016 01:40 -2,8 C -2,8 C -2,7 C 77 % 0 cb 1032,9 hPa 0,0 l/m 4,8 km/h (1 Bft) O-NO 67 0 min 0,000 mm 0 W/m -6,3 C -4,7 C 12,9 km/h (3 Bft) 100,00 %
29.11.2016 01:50 -2,8 C -2,8 C -2,7 C 77 % 0 cb 1032,8 hPa 0,0 l/m 4,8 km/h (1 Bft) N-NO 22 0 min 0,000 mm 0 W/m -6,3 C -4,7 C 11,3 km/h (2 Bft) 100,00 %
29.11.2016 02:00 -2,9 C -2,9 C -2,8 C 78 % 0 cb 1032,8 hPa 0,0 l/m 3,2 km/h (1 Bft) N-NO 22 0 min 0,025 mm 0 W/m -6,2 C -2,9 C 11,3 km/h (2 Bft) 100,00 %
29.11.2016 02:10 -3,2 C -3,2 C -2,9 C 79 % 0 cb 1032,9 hPa 0,0 l/m 3,2 km/h (1 Bft) N-NO 22 0 min 0,000 mm 0 W/m -6,3 C -3,2 C 6,4 km/h (2 Bft) 100,00 %
29.11.2016 02:20 -3,3 C -3,3 C -3,2 C 79 % 0 cb 1033,0 hPa 0,0 l/m 3,2 km/h (1 Bft) N 360 0 min 0,000 mm 0 W/m -6,4 C -3,3 C 9,7 km/h (2 Bft) 100,00 %
29.11.2016 02:30 -3,4 C -3,4 C -3,3 C 80 % 0 cb 1033,1 hPa 0,0 l/m 3,2 km/h (1 Bft) N 360 0 min 0,000 mm 0 W/m -6,3 C -3,4 C 11,3 km/h (2 Bft) 100,00 %
29.11.2016 02:40 -3,4 C -3,4 C -3,3 C 80 % 0 cb 1033,2 hPa 0,0 l/m 4,8 km/h (1 Bft) N-NW 337 0 min 0,000 mm 0 W/m -6,3 C -5,3 C 9,7 km/h (2 Bft) 100,00 %
29.11.2016 02:50 -3,5 C -3,5 C -3,4 C 81 % 0 cb 1033,1 hPa 0,0 l/m 4,8 km/h (1 Bft) N 360 0 min 0,000 mm 0 W/m -6,3 C -5,5 C 9,7 km/h (2 Bft) 100,00 %
29.11.2016 03:00 -3,5 C -3,5 C -3,4 C 81 % 0 cb 1033,2 hPa 0,0 l/m 4,8 km/h (1 Bft) N 360 0 min 0,000 mm 0 W/m -6,3 C -5,5 C 12,9 km/h (3 Bft) 100,00 %
29.11.2016 03:10 -3,5 C -3,5 C -3,4 C 81 % 0 cb 1033,2 hPa 0,0 l/m 4,8 km/h (1 Bft) N-NO 22 0 min 0,000 mm 0 W/m -6,3 C -5,5 C 17,7 km/h (3 Bft) 100,00 %
29.11.2016 03:20 -3,5 C -3,5 C -3,4 C 81 % 0 cb 1033,1 hPa 0,0 l/m 6,4 km/h (2 Bft) N 360 0 min 0,000 mm 0 W/m -6,3 C -6,2 C 16,1 km/h (3 Bft) 100,00 %
29.11.2016 03:30 -3,6 C -3,6 C -3,5 C 81 % 0 cb 1033,2 hPa 0,0 l/m 6,4 km/h (2 Bft) N-NO 22 0 min 0,000 mm 0 W/m -6,4 C -6,3 C 16,1 km/h (3 Bft) 100,00 %
29.11.2016 03:40 -3,6 C -3,6 C -3,6 C 81 % 0 cb 1033,2 hPa 0,0 l/m 8,0 km/h (2 Bft) N-NO 22 0 min 0,000 mm 0 W/m -6,4 C -7,0 C 16,1 km/h (3 Bft) 100,00 %
29.11.2016 03:50 -3,6 C -3,6 C -3,6 C 82 % 0 cb 1033,2 hPa 0,0 l/m 4,8 km/h (1 Bft) N-NO 22 0 min 0,000 mm 0 W/m -6,2 C -5,6 C 12,9 km/h (3 Bft) 100,00 %
29.11.2016 04:00 -3,7 C -3,7 C -3,6 C 82 % 0 cb 1033,1 hPa 0,0 l/m 4,8 km/h (1 Bft) N-NO 22 0 min 0,000 mm 0 W/m -6,3 C -5,7 C 14,5 km/h (3 Bft) 100,00 %
29.11.2016 04:10 -3,7 C -3,7 C -3,6 C 82 % 0 cb 1033,1 hPa 0,0 l/m 6,4 km/h (2 Bft) N-NO 22 0 min 0,000 mm 0 W/m -6,3 C -6,5 C 14,5 km/h (3 Bft) 100,00 %
29.11.2016 04:20 -3,6 C -3,7 C -3,6 C 82 % 0 cb 1033,1 hPa 0,0 l/m 4,8 km/h (1 Bft) N-NO 22 0 min 0,000 mm 0 W/m -6,2 C -5,6 C 14,5 km/h (3 Bft) 100,00 %
29.11.2016 04:30 -3,7 C -3,7 C -3,6 C 82 % 0 cb 1033,3 hPa 0,0 l/m 4,8 km/h (1 Bft) N-NO 22 0 min 0,000 mm 0 W/m -6,3 C -5,7 C 14,5 km/h (3 Bft) 100,00 %
29.11.2016 04:40 -3,7 C -3,8 C -3,7 C 82 % 0 cb 1033,2 hPa 0,0 l/m 8,0 km/h (2 Bft) N 360 0 min 0,000 mm 0 W/m -6,3 C -7,1 C 17,7 km/h (3 Bft) 100,00 %
29.11.2016 04:50 -3,8 C -3,8 C -3,7 C 82 % 0 cb 1033,2 hPa 0,0 l/m 8,0 km/h (2 Bft) N-NO 22 0 min 0,000 mm 0 W/m -6,4 C -7,2 C 16,1 km/h (3 Bft) 100,00 %
29.11.2016 05:00 -3,8 C -3,8 C -3,7 C 83 % 0 cb 1033,3 hPa 0,0 l/m 8,0 km/h (2 Bft) N-NO 22 0 min 0,000 mm 0 W/m -6,3 C -7,2 C 17,7 km/h (3 Bft) 100,00 %
29.11.2016 05:10 -3,8 C -3,8 C -3,7 C 83 % 0 cb 1033,4 hPa 0,0 l/m 8,0 km/h (2 Bft) N-NO 22 0 min 0,000 mm 0 W/m -6,3 C -7,2 C 17,7 km/h (3 Bft) 100,00 %
29.11.2016 05:20 -3,7 C -3,8 C -3,7 C 83 % 0 cb 1033,5 hPa 0,0 l/m 8,0 km/h (2 Bft) N-NO 22 0 min 0,000 mm 0 W/m -6,2 C -7,1 C 20,9 km/h (4 Bft) 100,00 %
29.11.2016 05:30 -3,7 C -3,7 C -3,7 C 83 % 0 cb 1033,5 hPa 0,0 l/m 6,4 km/h (2 Bft) N-NO 22 0 min 0,000 mm 0 W/m -6,2 C -6,5 C 20,9 km/h (4 Bft) 100,00 %
29.11.2016 05:40 -3,8 C -3,8 C -3,7 C 83 % 0 cb 1033,6 hPa 0,0 l/m 4,8 km/h (1 Bft) N-NO 22 0 min 0,000 mm 0 W/m -6,3 C -5,8 C 16,1 km/h (3 Bft) 100,00 %
29.11.2016 05:50 -3,9 C -3,9 C -3,8 C 83 % 0 cb 1033,6 hPa 0,0 l/m 4,8 km/h (1 Bft) NO 45 0 min 0,000 mm 0 W/m -6,4 C -5,9 C 14,5 km/h (3 Bft) 100,00 %
29.11.2016 06:00 -3,8 C -3,9 C -3,8 C 83 % 0 cb 1033,6 hPa 0,0 l/m 4,8 km/h (1 Bft) N-NO 22 0 min 0,000 mm 0 W/m -6,3 C -5,8 C 17,7 km/h (3 Bft) 100,00 %
29.11.2016 06:10 -3,8 C -3,8 C -3,8 C 83 % 0 cb 1033,8 hPa 0,0 l/m 4,8 km/h (1 Bft) N-NO 22 0 min 0,000 mm 0 W/m -6,3 C -5,8 C 12,9 km/h (3 Bft) 100,00 %
29.11.2016 06:20 -3,8 C -3,8 C -3,8 C 83 % 0 cb 1033,8 hPa 0,0 l/m 4,8 km/h (1 Bft) N-NO 22 0 min 0,000 mm 0 W/m -6,3 C -5,8 C 14,5 km/h (3 Bft) 100,00 %
29.11.2016 06:30 -3,9 C -3,9 C -3,8 C 83 % 0 cb 1033,9 hPa 0,0 l/m 4,8 km/h (1 Bft) N-NO 22 0 min 0,000 mm 0 W/m -6,4 C -5,9 C 14,5 km/h (3 Bft) 100,00 %
29.11.2016 06:40 -4,1 C -4,1 C -3,9 C 84 % 0 cb 1033,9 hPa 0,0 l/m 6,4 km/h (2 Bft) N-NO 22 0 min 0,000 mm 0 W/m -6,4 C -6,9 C 14,5 km/h (3 Bft) 100,00 %
29.11.2016 06:50 -4,2 C -4,2 C -4,1 C 84 % 0 cb 1033,9 hPa 0,0 l/m 6,4 km/h (2 Bft) N-NO 22 0 min 0,000 mm 0 W/m -6,5 C -7,0 C 14,5 km/h (3 Bft) 100,00 %
29.11.2016 07:00 -4,3 C -4,3 C -4,2 C 85 % 0 cb 1033,9 hPa 0,0 l/m 6,4 km/h (2 Bft) N-NO 22 0 min 0,000 mm 0 W/m -6,4 C -7,1 C 16,1 km/h (3 Bft) 96,49 %
29.11.2016 07:10 -4,3 C -4,3 C -4,3 C 85 % 0 cb 1033,9 hPa 0,0 l/m 9,7 km/h (2 Bft) N-NO 22 0 min 0,000 mm 0 W/m -6,4 C -8,4 C 19,3 km/h (3 Bft) 100,00 %
29.11.2016 07:20 -4,3 C -4,3 C -4,3 C 85 % 0 cb 1034,0 hPa 0,0 l/m 8,0 km/h (2 Bft) N-NO 22 0 min 0,000 mm 0 W/m -6,4 C -7,8 C 17,7 km/h (3 Bft) 100,00 %
29.11.2016 07:30 -4,3 C -4,3 C -4,3 C 85 % 0 cb 1034,1 hPa 0,0 l/m 8,0 km/h (2 Bft) N-NO 22 0 min 0,000 mm 0 W/m -6,4 C -7,8 C 16,1 km/h (3 Bft) 100,00 %
29.11.2016 07:40 -4,4 C -4,4 C -4,3 C 85 % 0 cb 1034,2 hPa 0,0 l/m 9,7 km/h (2 Bft) N 360 0 min 0,000 mm 0 W/m -6,5 C -8,5 C 17,7 km/h (3 Bft) 100,00 %
29.11.2016 07:50 -4,3 C -4,4 C -4,3 C 85 % 0 cb 1034,2 hPa 0,0 l/m 8,0 km/h (2 Bft) N-NO 22 0 min 0,000 mm 0 W/m -6,4 C -7,8 C 19,3 km/h (3 Bft) 100,00 %
29.11.2016 08:00 -4,3 C -4,3 C -4,3 C 85 % 0 cb 1034,2 hPa 0,0 l/m 6,4 km/h (2 Bft) N-NO 22 0 min 0,000 mm 0 W/m -6,4 C -7,1 C 14,5 km/h (3 Bft) 100,00 %
29.11.2016 08:10 -4,3 C -4,3 C -4,3 C 85 % 0 cb 1034,2 hPa 0,0 l/m 6,4 km/h (2 Bft) N-NO 22 0 min 0,000 mm 5 W/m -6,4 C -7,1 C 12,9 km/h (3 Bft) 100,00 %
29.11.2016 08:20 -4,3 C -4,3 C -4,3 C 85 % 0 cb 1034,3 hPa 0,0 l/m 6,4 km/h (2 Bft) N-NO 22 0 min 0,000 mm 9 W/m -6,4 C -7,1 C 12,9 km/h (3 Bft) 100,00 %
29.11.2016 08:30 -4,2 C -4,3 C -4,2 C 84 % 0 cb 1034,3 hPa 0,0 l/m 8,0 km/h (2 Bft) N-NO 22 0 min 0,000 mm 12 W/m -6,5 C -7,7 C 17,7 km/h (3 Bft) 100,00 %
29.11.2016 08:40 -4,2 C -4,2 C -4,1 C 84 % 0 cb 1034,4 hPa 0,0 l/m 8,0 km/h (2 Bft) N 360 0 min 0,000 mm 14 W/m -6,5 C -7,7 C 16,1 km/h (3 Bft) 100,00 %
29.11.2016 08:50 -4,1 C -4,2 C -4,1 C 84 % 0 cb 1034,5 hPa 0,0 l/m 9,7 km/h (2 Bft) N 360 0 min 0,000 mm 16 W/m -6,4 C -8,1 C 22,5 km/h (4 Bft) 100,00 %
29.11.2016 09:00 -3,9 C -4,1 C -3,9 C 84 % 0 cb 1034,6 hPa 0,0 l/m 8,0 km/h (2 Bft) N-NO 22 0 min 0,000 mm 28 W/m -6,2 C -7,3 C 27,4 km/h (4 Bft) 100,00 %
29.11.2016 09:10 -3,6 C -3,9 C -3,6 C 83 % 0 cb 1034,7 hPa 0,0 l/m 9,7 km/h (2 Bft) N-NO 22 0 min 0,000 mm 19 W/m -6,1 C -7,5 C 27,4 km/h (4 Bft) 100,00 %
29.11.2016 09:20 -3,3 C -3,6 C -3,3 C 82 % 0 cb 1034,7 hPa 0,0 l/m 6,4 km/h (2 Bft) N 360 0 min 0,000 mm 19 W/m -5,9 C -6,0 C 12,9 km/h (3 Bft) 100,00 %
29.11.2016 09:30 -3,1 C -3,3 C -3,1 C 81 % 0 cb 1034,7 hPa 0,0 l/m 4,8 km/h (1 Bft) N-NO 22 0 min 0,000 mm 21 W/m -5,9 C -5,0 C 16,1 km/h (3 Bft) 100,00 %
29.11.2016 09:40 -2,9 C -3,1 C -2,9 C 81 % 0 cb 1034,8 hPa 0,0 l/m 6,4 km/h (2 Bft) N-NO 22 0 min 0,000 mm 23 W/m -5,7 C -5,5 C 14,5 km/h (3 Bft) 100,00 %
29.11.2016 09:50 -2,7 C -2,9 C -2,7 C 80 % 0 cb 1034,9 hPa 0,0 l/m 6,4 km/h (2 Bft) N-NO 22 0 min 0,000 mm 23 W/m -5,7 C -5,3 C 16,1 km/h (3 Bft) 100,00 %
29.11.2016 10:00 -2,5 C -2,7 C -2,5 C 80 % 0 cb 1034,9 hPa 0,0 l/m 6,4 km/h (2 Bft) N-NO 22 0 min 0,025 mm 100 W/m -5,5 C -5,1 C 17,7 km/h (3 Bft) 100,00 %
29.11.2016 10:10 -2,1 C -2,5 C -2,1 C 78 % 0 cb 1034,9 hPa 0,0 l/m 4,8 km/h (1 Bft) NO 45 10 min 0,000 mm 181 W/m -5,4 C -3,9 C 12,9 km/h (3 Bft) 100,00 %
29.11.2016 10:20 -1,5 C -2,1 C -1,5 C 76 % 0 cb 1034,9 hPa 0,0 l/m 4,8 km/h (1 Bft) NO 45 10 min 0,000 mm 197 W/m -5,2 C -3,2 C 17,7 km/h (3 Bft) 100,00 %
29.11.2016 10:30 -0,9 C -1,5 C -0,9 C 73 % 0 cb 1035,0 hPa 0,0 l/m 4,8 km/h (1 Bft) N-NO 22 10 min 0,000 mm 213 W/m -5,1 C -2,5 C 20,9 km/h (4 Bft) 100,00 %
29.11.2016 10:40 -0,3 C -0,9 C -0,3 C 70 % 0 cb 1034,9 hPa 0,0 l/m 4,8 km/h (1 Bft) O-NO 67 10 min 0,000 mm 229 W/m -5,1 C -1,8 C 17,7 km/h (3 Bft) 100,00 %
29.11.2016 10:50 0,3 C -0,3 C 0,3 C 65 % 0 cb 1034,9 hPa 0,0 l/m 8,0 km/h (2 Bft) O-NO 67 10 min 0,000 mm 244 W/m -5,5 C -2,4 C 25,7 km/h (4 Bft) 100,00 %
29.11.2016 11:00 0,4 C 0,3 C 0,4 C 63 % 0 cb 1034,9 hPa 0,0 l/m 8,0 km/h (2 Bft) O-NO 67 10 min 0,076 mm 255 W/m -5,8 C -2,3 C 27,4 km/h (4 Bft) 99,12 %
29.11.2016 11:10 0,8 C 0,4 C 0,8 C 61 % 0 cb 1034,9 hPa 0,0 l/m 8,0 km/h (2 Bft) O-NO 67 10 min 0,000 mm 265 W/m -5,8 C -1,8 C 22,5 km/h (4 Bft) 99,56 %
29.11.2016 11:20 1,0 C 0,8 C 1,0 C 61 % 0 cb 1034,8 hPa 0,0 l/m 8,0 km/h (2 Bft) O 90 10 min 0,000 mm 279 W/m -5,7 C -1,6 C 19,3 km/h (3 Bft) 100,00 %
29.11.2016 11:30 1,2 C 1,0 C 1,2 C 60 % 0 cb 1034,8 hPa 0,0 l/m 8,0 km/h (2 Bft) O-NO 67 10 min 0,000 mm 287 W/m -5,7 C -1,3 C 19,3 km/h (3 Bft) 100,00 %
29.11.2016 11:40 1,2 C 1,2 C 1,3 C 59 % 0 cb 1034,7 hPa 0,0 l/m 8,0 km/h (2 Bft) O-NO 67 10 min 0,000 mm 294 W/m -5,9 C -1,3 C 22,5 km/h (4 Bft) 100,00 %
29.11.2016 11:50 1,4 C 1,3 C 1,4 C 60 % 0 cb 1034,8 hPa 0,0 l/m 6,4 km/h (2 Bft) O-NO 67 10 min 0,000 mm 297 W/m -5,5 C -0,6 C 22,5 km/h (4 Bft) 100,00 %
29.11.2016 12:00 1,3 C 1,3 C 1,5 C 60 % 0 cb 1034,7 hPa 0,0 l/m 9,7 km/h (2 Bft) O-NO 67 10 min 0,127 mm 301 W/m -5,6 C -1,7 C 25,7 km/h (4 Bft) 99,56 %
29.11.2016 12:10 1,4 C 1,3 C 1,4 C 61 % 0 cb 1034,7 hPa 0,0 l/m 8,0 km/h (2 Bft) O-NO 67 10 min 0,000 mm 302 W/m -5,3 C -1,1 C 19,3 km/h (3 Bft) 99,56 %
29.11.2016 12:20 1,5 C 1,4 C 1,5 C 59 % 0 cb 1034,8 hPa 0,0 l/m 6,4 km/h (2 Bft) O-NO 67 10 min 0,000 mm 304 W/m -5,6 C -0,4 C 16,1 km/h (3 Bft) 100,00 %
29.11.2016 12:30 1,6 C 1,4 C 1,6 C 59 % 0 cb 1034,8 hPa 0,0 l/m 8,0 km/h (2 Bft) O-NO 67 10 min 0,000 mm 304 W/m -5,5 C -0,9 C 20,9 km/h (4 Bft) 100,00 %
29.11.2016 12:40 1,6 C 1,4 C 1,6 C 59 % 0 cb 1034,8 hPa 0,0 l/m 8,0 km/h (2 Bft) O-NO 67 10 min 0,000 mm 302 W/m -5,5 C -0,9 C 19,3 km/h (3 Bft) 100,00 %
29.11.2016 12:50 1,8 C 1,6 C 1,8 C 58 % 0 cb 1034,8 hPa 0,0 l/m 6,4 km/h (2 Bft) O-NO 67 10 min 0,000 mm 301 W/m -5,6 C -0,1 C 14,5 km/h (3 Bft) 100,00 %
29.11.2016 13:00 1,8 C 1,8 C 1,8 C 57 % 0 cb 1034,7 hPa 0,0 l/m 6,4 km/h (2 Bft) O 90 10 min 0,127 mm 297 W/m -5,8 C -0,1 C 17,7 km/h (3 Bft) 100,00 %
29.11.2016 13:10 2,1 C 1,8 C 2,1 C 56 % 0 cb 1034,7 hPa 0,0 l/m 6,4 km/h (2 Bft) O-NO 67 10 min 0,000 mm 294 W/m -5,7 C 0,2 C 17,7 km/h (3 Bft) 100,00 %
29.11.2016 13:20 2,2 C 2,0 C 2,2 C 57 % 0 cb 1034,6 hPa 0,0 l/m 6,4 km/h (2 Bft) O-NO 67 10 min 0,000 mm 288 W/m -5,4 C 0,4 C 16,1 km/h (3 Bft) 100,00 %
29.11.2016 13:30 2,2 C 2,2 C 2,2 C 56 % 0 cb 1034,5 hPa 0,0 l/m 8,0 km/h (2 Bft) O-NO 67 10 min 0,000 mm 279 W/m -5,6 C -0,2 C 17,7 km/h (3 Bft) 100,00 %
29.11.2016 13:40 2,3 C 2,2 C 2,3 C 55 % 0 cb 1034,4 hPa 0,0 l/m 6,4 km/h (2 Bft) O-NO 67 10 min 0,000 mm 271 W/m -5,8 C 0,5 C 17,7 km/h (3 Bft) 100,00 %
29.11.2016 13:50 2,4 C 2,3 C 2,4 C 55 % 0 cb 1034,4 hPa 0,0 l/m 6,4 km/h (2 Bft) O-NO 67 10 min 0,000 mm 260 W/m -5,7 C 0,6 C 19,3 km/h (3 Bft) 100,00 %
29.11.2016 14:00 2,6 C 2,4 C 2,6 C 53 % 0 cb 1034,4 hPa 0,0 l/m 6,4 km/h (2 Bft) O-NO 67 10 min 0,127 mm 248 W/m -6,0 C 0,8 C 20,9 km/h (4 Bft) 100,00 %
29.11.2016 14:10 2,6 C 2,5 C 2,6 C 52 % 0 cb 1034,4 hPa 0,0 l/m 6,4 km/h (2 Bft) O 90 10 min 0,000 mm 234 W/m -6,2 C 0,8 C 20,9 km/h (4 Bft) 100,00 %
29.11.2016 14:20 2,7 C 2,6 C 2,7 C 51 % 0 cb 1034,5 hPa 0,0 l/m 6,4 km/h (2 Bft) O 90 10 min 0,000 mm 218 W/m -6,4 C 0,9 C 12,9 km/h (3 Bft) 100,00 %
29.11.2016 14:30 2,8 C 2,7 C 2,8 C 51 % 0 cb 1034,5 hPa 0,0 l/m 4,8 km/h (1 Bft) O-NO 67 10 min 0,000 mm 204 W/m -6,3 C 1,7 C 12,9 km/h (3 Bft) 100,00 %
29.11.2016 14:40 2,9 C 2,8 C 2,9 C 50 % 0 cb 1034,5 hPa 0,0 l/m 4,8 km/h (1 Bft) O-NO 67 10 min 0,000 mm 186 W/m -6,5 C 1,8 C 17,7 km/h (3 Bft) 100,00 %
29.11.2016 14:50 2,8 C 2,8 C 2,9 C 50 % 0 cb 1034,5 hPa 0,0 l/m 4,8 km/h (1 Bft) O-NO 67 10 min 0,000 mm 165 W/m -6,6 C 1,7 C 14,5 km/h (3 Bft) 100,00 %
29.11.2016 15:00 2,8 C 2,8 C 2,8 C 50 % 0 cb 1034,5 hPa 0,0 l/m 3,2 km/h (1 Bft) NO 45 0 min 0,076 mm 107 W/m -6,6 C 2,8 C 11,3 km/h (2 Bft) 98,68 %
29.11.2016 15:10 2,8 C 2,7 C 2,8 C 51 % 0 cb 1034,5 hPa 0,0 l/m 1,6 km/h (1 Bft) NO 45 0 min 0,000 mm 74 W/m -6,3 C 2,8 C 9,7 km/h (2 Bft) 100,00 %
29.11.2016 15:20 2,4 C 2,4 C 2,8 C 53 % 0 cb 1034,5 hPa 0,0 l/m 3,2 km/h (1 Bft) N 360 0 min 0,000 mm 70 W/m -6,2 C 2,4 C 9,7 km/h (2 Bft) 100,00 %
29.11.2016 15:30 2,2 C 2,2 C 2,4 C 54 % 0 cb 1034,6 hPa 0,0 l/m 4,8 km/h (1 Bft) N-NO 22 0 min 0,000 mm 60 W/m -6,1 C 1,0 C 11,3 km/h (2 Bft) 100,00 %
29.11.2016 15:40 1,8 C 1,8 C 2,1 C 55 % 0 cb 1034,4 hPa 0,0 l/m 4,8 km/h (1 Bft) NO 45 0 min 0,000 mm 23 W/m -6,3 C 0,5 C 9,7 km/h (2 Bft) 100,00 %
29.11.2016 15:50 1,6 C 1,6 C 1,8 C 56 % 0 cb 1034,4 hPa 0,0 l/m 4,8 km/h (1 Bft) O-NO 67 0 min 0,000 mm 18 W/m -6,2 C 0,3 C 11,3 km/h (2 Bft) 100,00 %
29.11.2016 16:00 1,4 C 1,4 C 1,6 C 56 % 0 cb 1034,4 hPa 0,0 l/m 3,2 km/h (1 Bft) NO 45 0 min 0,025 mm 18 W/m -6,4 C 1,4 C 12,9 km/h (3 Bft) 100,00 %
29.11.2016 16:10 1,2 C 1,2 C 1,4 C 58 % 0 cb 1034,4 hPa 0,0 l/m 4,8 km/h (1 Bft) N-NO 22 0 min 0,000 mm 14 W/m -6,1 C -0,1 C 12,9 km/h (3 Bft) 100,00 %
29.11.2016 16:20 0,9 C 0,9 C 1,2 C 59 % 0 cb 1034,4 hPa 0,0 l/m 4,8 km/h (1 Bft) N-NO 22 0 min 0,000 mm 12 W/m -6,2 C -0,5 C 11,3 km/h (2 Bft) 99,12 %
29.11.2016 16:30 0,7 C 0,7 C 0,9 C 62 % 0 cb 1034,4 hPa 0,0 l/m 4,8 km/h (1 Bft) NO 45 0 min 0,000 mm 9 W/m -5,7 C -0,7 C 12,9 km/h (3 Bft) 99,12 %
29.11.2016 16:40 0,3 C 0,3 C 0,7 C 65 % 0 cb 1034,6 hPa 0,0 l/m 3,2 km/h (1 Bft) N-NO 22 0 min 0,000 mm 7 W/m -5,5 C 0,3 C 9,7 km/h (2 Bft) 99,12 %
29.11.2016 16:50 -0,1 C -0,1 C 0,2 C 68 % 0 cb 1034,6 hPa 0,0 l/m 6,4 km/h (2 Bft) N-NO 22 0 min 0,000 mm 0 W/m -5,3 C -2,3 C 11,3 km/h (2 Bft) 100,00 %
29.11.2016 17:00 -0,3 C -0,3 C -0,2 C 69 % 0 cb 1034,5 hPa 0,0 l/m 6,4 km/h (2 Bft) N-NO 22 0 min 0,025 mm 0 W/m -5,3 C -2,5 C 16,1 km/h (3 Bft) 100,00 %
29.11.2016 17:10 -0,4 C -0,4 C -0,3 C 69 % 0 cb 1034,4 hPa 0,0 l/m 6,4 km/h (2 Bft) N-NO 22 0 min 0,000 mm 0 W/m -5,4 C -2,6 C 17,7 km/h (3 Bft) 100,00 %
29.11.2016 17:20 -0,6 C -0,6 C -0,4 C 70 % 0 cb 1034,6 hPa 0,0 l/m 4,8 km/h (1 Bft) N-NO 22 0 min 0,000 mm 0 W/m -5,4 C -2,2 C 16,1 km/h (3 Bft) 100,00 %
29.11.2016 17:30 -0,7 C -0,7 C -0,6 C 70 % 0 cb 1034,9 hPa 0,0 l/m 3,2 km/h (1 Bft) N-NO 22 0 min 0,000 mm 0 W/m -5,5 C -0,7 C 11,3 km/h (2 Bft) 100,00 %
29.11.2016 17:40 -0,9 C -0,9 C -0,7 C 71 % 0 cb 1035,0 hPa 0,0 l/m 3,2 km/h (1 Bft) N-NO 22 0 min 0,000 mm 0 W/m -5,5 C -0,9 C 11,3 km/h (2 Bft) 100,00 %
29.11.2016 17:50 -1,2 C -1,2 C -0,9 C 73 % 0 cb 1035,1 hPa 0,0 l/m 3,2 km/h (1 Bft) N 360 0 min 0,000 mm 0 W/m -5,4 C -1,2 C 8,0 km/h (2 Bft) 100,00 %
29.11.2016 18:00 -1,4 C -1,4 C -1,2 C 73 % 0 cb 1035,2 hPa 0,0 l/m 3,2 km/h (1 Bft) N-NO 22 0 min 0,025 mm 0 W/m -5,6 C -1,4 C 8,0 km/h (2 Bft) 100,00 %
29.11.2016 18:10 -1,4 C -1,4 C -1,4 C 74 % 0 cb 1035,2 hPa 0,0 l/m 4,8 km/h (1 Bft) N-NO 22 0 min 0,000 mm 0 W/m -5,4 C -3,1 C 11,3 km/h (2 Bft) 100,00 %
29.11.2016 18:20 -1,6 C -1,6 C -1,4 C 74 % 0 cb 1035,3 hPa 0,0 l/m 4,8 km/h (1 Bft) N-NO 22 0 min 0,000 mm 0 W/m -5,6 C -3,3 C 9,7 km/h (2 Bft) 100,00 %
29.11.2016 18:30 -1,7 C -1,7 C -1,6 C 74 % 0 cb 1035,3 hPa 0,0 l/m 4,8 km/h (1 Bft) N-NO 22 0 min 0,000 mm 0 W/m -5,7 C -3,4 C 11,3 km/h (2 Bft) 100,00 %
29.11.2016 18:40 -1,7 C -1,7 C -1,7 C 74 % 0 cb 1035,4 hPa 0,0 l/m 4,8 km/h (1 Bft) N-NO 22 0 min 0,000 mm 0 W/m -5,7 C -3,4 C 11,3 km/h (2 Bft) 100,00 %
29.11.2016 18:50 -1,8 C -1,8 C -1,7 C 75 % 0 cb 1035,4 hPa 0,0 l/m 4,8 km/h (1 Bft) N-NO 22 0 min 0,000 mm 0 W/m -5,6 C -3,5 C 11,3 km/h (2 Bft) 100,00 %
29.11.2016 19:00 -1,8 C -1,9 C -1,8 C 75 % 0 cb 1035,4 hPa 0,0 l/m 6,4 km/h (2 Bft) N-NO 22 0 min 0,025 mm 0 W/m -5,6 C -4,3 C 14,5 km/h (3 Bft) 100,00 %
29.11.2016 19:10 -1,8 C -1,9 C -1,8 C 75 % 0 cb 1035,4 hPa 0,0 l/m 4,8 km/h (1 Bft) N 360 0 min 0,000 mm 0 W/m -5,6 C -3,5 C 14,5 km/h (3 Bft) 99,12 %
29.11.2016 19:20 -1,8 C -1,9 C -1,8 C 75 % 0 cb 1035,6 hPa 0,0 l/m 4,8 km/h (1 Bft) N 360 0 min 0,000 mm 0 W/m -5,6 C -3,5 C 14,5 km/h (3 Bft) 100,00 %
29.11.2016 19:30 -1,8 C -1,8 C -1,8 C 75 % 0 cb 1035,5 hPa 0,0 l/m 4,8 km/h (1 Bft) N 360 0 min 0,000 mm 0 W/m -5,6 C -3,5 C 12,9 km/h (3 Bft) 100,00 %
29.11.2016 19:40 -1,9 C -1,9 C -1,8 C 75 % 0 cb 1035,5 hPa 0,0 l/m 6,4 km/h (2 Bft) N-NO 22 0 min 0,000 mm 0 W/m -5,7 C -4,4 C 11,3 km/h (2 Bft) 100,00 %
29.11.2016 19:50 -1,9 C -1,9 C -1,8 C 75 % 0 cb 1035,5 hPa 0,0 l/m 8,0 km/h (2 Bft) N-NO 22 0 min 0,000 mm 0 W/m -5,7 C -5,0 C 14,5 km/h (3 Bft) 100,00 %
29.11.2016 20:00 -2,1 C -2,1 C -1,9 C 76 % 0 cb 1035,5 hPa 0,0 l/m 8,0 km/h (2 Bft) N-NO 22 0 min 0,025 mm 0 W/m -5,7 C -5,2 C 17,7 km/h (3 Bft) 100,00 %
29.11.2016 20:10 -2,1 C -2,2 C -2,1 C 76 % 0 cb 1035,8 hPa 0,0 l/m 6,4 km/h (2 Bft) N 360 0 min 0,000 mm 0 W/m -5,7 C -4,6 C 14,5 km/h (3 Bft) 100,00 %
29.11.2016 20:20 -2,2 C -2,2 C -2,1 C 77 % 0 cb 1035,8 hPa 0,0 l/m 4,8 km/h (1 Bft) N 360 0 min 0,000 mm 0 W/m -5,7 C -4,0 C 12,9 km/h (3 Bft) 100,00 %
29.11.2016 20:30 -2,2 C -2,2 C -2,2 C 77 % 0 cb 1035,8 hPa 0,0 l/m 4,8 km/h (1 Bft) N 360 0 min 0,000 mm 0 W/m -5,7 C -4,0 C 12,9 km/h (3 Bft) 98,68 %
29.11.2016 20:40 -2,3 C -2,3 C -2,2 C 77 % 0 cb 1035,8 hPa 0,0 l/m 6,4 km/h (2 Bft) N-NO 22 0 min 0,000 mm 0 W/m -5,8 C -4,8 C 17,7 km/h (3 Bft) 100,00 %
29.11.2016 20:50 -2,3 C -2,3 C -2,2 C 77 % 0 cb 1035,8 hPa 0,0 l/m 4,8 km/h (1 Bft) N 360 0 min 0,000 mm 0 W/m -5,8 C -4,1 C 12,9 km/h (3 Bft) 100,00 %
29.11.2016 21:00 -2,3 C -2,3 C -2,3 C 78 % 0 cb 1035,7 hPa 0,0 l/m 6,4 km/h (2 Bft) N-NO 22 0 min 0,025 mm 0 W/m -5,6 C -4,8 C 11,3 km/h (2 Bft) 99,56 %
29.11.2016 21:10 -2,4 C -2,4 C -2,3 C 78 % 0 cb 1035,9 hPa 0,0 l/m 6,4 km/h (2 Bft) N-NO 22 0 min 0,000 mm 0 W/m -5,7 C -5,0 C 14,5 km/h (3 Bft) 99,56 %
29.11.2016 21:20 -2,5 C -2,5 C -2,4 C 79 % 0 cb 1035,9 hPa 0,0 l/m 9,7 km/h (2 Bft) N-NO 22 0 min 0,000 mm 0 W/m -5,6 C -6,2 C 16,1 km/h (3 Bft) 99,12 %
29.11.2016 21:30 -2,6 C -2,6 C -2,5 C 79 % 0 cb 1036,0 hPa 0,0 l/m 9,7 km/h (2 Bft) N 360 0 min 0,000 mm 0 W/m -5,7 C -6,3 C 17,7 km/h (3 Bft) 99,56 %
29.11.2016 21:40 -2,6 C -2,6 C -2,6 C 79 % 0 cb 1035,9 hPa 0,0 l/m 8,0 km/h (2 Bft) N-NO 22 0 min 0,000 mm 0 W/m -5,7 C -5,8 C 16,1 km/h (3 Bft) 100,00 %
29.11.2016 21:50 -2,6 C -2,6 C -2,5 C 79 % 0 cb 1035,9 hPa 0,0 l/m 6,4 km/h (2 Bft) N-NO 22 0 min 0,000 mm 0 W/m -5,7 C -5,2 C 14,5 km/h (3 Bft) 97,37 %
29.11.2016 22:00 -2,5 C -2,6 C -2,5 C 79 % 0 cb 1035,9 hPa 0,0 l/m 6,4 km/h (2 Bft) N 360 0 min 0,025 mm 0 W/m -5,6 C -5,1 C 14,5 km/h (3 Bft) 100,00 %
29.11.2016 22:10 -2,5 C -2,6 C -2,5 C 79 % 0 cb 1035,9 hPa 0,0 l/m 4,8 km/h (1 Bft) N-NO 22 0 min 0,000 mm 0 W/m -5,6 C -4,3 C 11,3 km/h (2 Bft) 100,00 %
29.11.2016 22:20 -2,4 C -2,5 C -2,4 C 78 % 0 cb 1036,0 hPa 0,0 l/m 6,4 km/h (2 Bft) N 360 0 min 0,000 mm 0 W/m -5,7 C -5,0 C 12,9 km/h (3 Bft) 100,00 %
29.11.2016 22:30 -2,3 C -2,4 C -2,3 C 78 % 0 cb 1035,8 hPa 0,0 l/m 6,4 km/h (2 Bft) N-NO 22 0 min 0,000 mm 0 W/m -5,6 C -4,8 C 14,5 km/h (3 Bft) 100,00 %
29.11.2016 22:40 -2,5 C -2,5 C -2,3 C 78 % 0 cb 1035,9 hPa 0,0 l/m 4,8 km/h (1 Bft) N-NO 22 0 min 0,000 mm 0 W/m -5,8 C -4,3 C 9,7 km/h (2 Bft) 100,00 %
29.11.2016 22:50 -2,6 C -2,6 C -2,5 C 79 % 0 cb 1035,9 hPa 0,0 l/m 4,8 km/h (1 Bft) N 360 0 min 0,000 mm 0 W/m -5,7 C -4,4 C 11,3 km/h (2 Bft) 100,00 %
29.11.2016 23:00 -2,4 C -2,6 C -2,4 C 78 % 0 cb 1035,9 hPa 0,0 l/m 8,0 km/h (2 Bft) N 360 0 min 0,025 mm 0 W/m -5,7 C -5,6 C 16,1 km/h (3 Bft) 100,00 %
29.11.2016 23:10 -2,6 C -2,6 C -2,4 C 79 % 0 cb 1035,9 hPa 0,0 l/m 6,4 km/h (2 Bft) N-NO 22 0 min 0,000 mm 0 W/m -5,7 C -5,2 C 16,1 km/h (3 Bft) 100,00 %
29.11.2016 23:20 -2,7 C -2,7 C -2,6 C 79 % 0 cb 1035,9 hPa 0,0 l/m 4,8 km/h (1 Bft) N 360 0 min 0,000 mm 0 W/m -5,8 C -4,5 C 12,9 km/h (3 Bft) 100,00 %
29.11.2016 23:30 -2,7 C -2,8 C -2,7 C 80 % 0 cb 1036,0 hPa 0,0 l/m 4,8 km/h (1 Bft) N 360 0 min 0,000 mm 0 W/m -5,7 C -4,5 C 12,9 km/h (3 Bft) 100,00 %
29.11.2016 23:40 -2,7 C -2,7 C -2,7 C 80 % 0 cb 1036,0 hPa 0,0 l/m 4,8 km/h (1 Bft) N 360 0 min 0,000 mm 0 W/m -5,7 C -4,5 C 12,9 km/h (3 Bft) 100,00 %
29.11.2016 23:50 -2,7 C -2,7 C -2,7 C 79 % 0 cb 1035,9 hPa 0,0 l/m 6,4 km/h (2 Bft) N-NO 22 0 min 0,000 mm 0 W/m -5,8 C -5,3 C 12,9 km/h (3 Bft) 100,00 %
_ Min-Zeit 07:40 07:40 07:10 14:40 00:00 01:50 - 15:10 - - - - - 14:50 07:40 02:10 07:00
Minimum _ -4,4 C -4,4 C -4,3 C 50 % 0 cb 1032,8 hPa - 1,6 km/h (1 Bft) - - - - - -6,6 C -8,5 C 6,4 km/h (2 Bft) 96,49 %
_ Max-Zeit 14:40 14:40 14:40 07:00 00:00 21:30 00:00 07:10 - - 10:10 12:00 12:20 10:40 15:00 09:00 00:00
Maximum _ 2,9 C 2,8 C 2,9 C 85 % 0 cb 1036,0 hPa 0,0 l/m 9,7 km/h
N-NO (2 Bft)
- - 10 min 0,127 mm 304 W/m -5,1 C 2,8 C 27,4 km/h
N-NO (4 Bft)
100,00 %
Durchschnitt _ -1,6 C -1,7 C -1,6 C 73 % 0 cb 1034,5 hPa #0,0 l/m 5,9 km/h (2 Bft) N-NO - #4:50 h #0,833 mm 158 W/m -5,9 C -3,7 C 15,3 km/h (3 Bft) 99,88 %
Wetterstation Gdesweiler